Regional Weather Roundup
Issued by NWS State College, PA

Home | Current Version | Previous Version | Text Only | Print | Product List | Glossary Off
Versions: 1 2 3 4 5 6 7 8 9 10 11 12 13 14 15 16 17 18 19 20 21 22 23 24 25 26 27 28 29 30 31 32 33 34 35 36 37 38 39 40 41 42 43 44 45 46 47 48 49 50

000
ASUS41 KCTP 050103
RWRCTP

REGIONAL WEATHER ROUNDUP
NATIONAL WEATHER SERVICE STATE COLLEGE PA
900 PM EDT MON MAY 04 2015

Note: "fair" indicates few or no clouds below 12,000 feet with no
significant weather and/or obstructions to visibility.

* = STATION THAT DOES NOT REPORT PRECIPITATION /E.G. RAIN...SNOW...ETC/
    THUNDER OR FOG.

PAZ002>004-007>009-013>016-020>023-029>032-050200-
WESTERN PENNSYLVANIA

CITY           SKY/WX    TMP DP  RH WIND       PRES   REMARKS
ERIE           CLOUDY    62  57  83 S5        30.16R
MEADVILLE      LGT RAIN  61  57  87 SW6       30.19R
FRANKLIN*      CLOUDY    61  54  77 SW5       30.22R
NEW CASTLE     LGT RAIN  63  63 100 CALM      30.21S
BEAVER COUNTY  LGT RAIN  63  61  94 CALM      30.21S
BUTLER*        CLOUDY    63  57  82 NW3       30.24R
PITTSBURGH INT LGT RAIN  65  59  81 NW12      30.21R
PITTSBURGH     LGT RAIN  67  53  61 NW13G25   30.19R
INDIANA*       CLOUDY    72  50  46 W5        30.20R
LATROBE        MOCLDY    68  52  56 SW7       30.18R
WASHINGTON CO* CLOUDY    68  54  60 NW7       30.22R
$$

PAZ004>006-010>012-017>019-024>028-033>037-041-042-045-046-049>053-050200-
CENTRAL PENNSYLVANIA

CITY           SKY/WX    TMP DP  RH WIND       PRES   REMARKS
BRADFORD       LGT RAIN  62  55  77 NW7       30.21R
DUBOIS         CLOUDY    69  53  56 NW15G22   30.18R
CLEARFIELD     CLOUDY    73  45  36 SW5       30.16R
JOHNSTOWN      CLOUDY    70  45  40 W8        30.20R
ALTOONA        PTCLDY    73  44  35 SW6       30.18R
STATE COLLEGE  CLEAR     72  45  37 W9        30.15R
WILLIAMSPORT   PTCLDY    74  44  34 CALM      30.09R
SELINSGROVE    MOCLDY    72  50  45 S6        30.12R
FT INDIANTOWN  PTCLDY    74  48  40 S5        30.14R
CAPITAL CITY   PTCLDY    77  46  33 S9        30.13R
HARRISBURG     PTCLDY    77  47  34 VRB5      30.12R
YORK           PTCLDY    73  48  41 S7        30.15R
$$

PAZ038>040-043-044-047-048-054-055-060>062-067>071-050200-
EASTERN PENNSYLVANIA

CITY           SKY/WX    TMP DP  RH WIND       PRES   REMARKS
SCRANTON       PTCLDY    77  40  26 SW6       30.11R
MOUNT POCONO   PTCLDY    70  42  36 SW10      30.17R
ALLENTOWN      PTCLDY    75  45  34 SW12      30.14R
QUAKERTOWN*    CLEAR     73  46  38 SW6       30.17R
READING        PTCLDY    74  46  36 S12       30.14R
LANCASTER      PTCLDY    72  47  40 S13       30.15R
COATESVILLE    CLEAR     72  46  40 S3        30.19R
POTTSTOWN      CLEAR     74  45  35 S3        30.18R
BLUE BELL      CLEAR     73  45  35 S5        30.16R
DOYLESTOWN     CLEAR     73  41  31 S8        30.16R
WILLOW GROVE   NOT AVBL
NORTH PHILA    CLEAR     78  39  24 SW10      30.18R
PHILADELPHIA   PTCLDY    76  43  30 S8        30.17R
$$


USA.gov is the U.S. government's official web portal to all federal, state and local government web resources and services.